When you browse on this site, cookies collect data to enhance your experience and personalize the content and advertising you see.
Visit our Privacy Policy to learn more. By continuing to use the site, you agree to this use of cookies and data.
  • In Spain
  • List of Countries
  • For 7 days
  • Water Temperature
  • Satellite Maps
  • Weather Map
  • Weather Widgets
  • user-avatar
    Login

    Hourly Weather Bocharovschina

    Today, 24 May, Friday

    Time Temperature Precipitation Wind Pressure Humidity
    00:00 +16°C° 0 mm 2 mps 740 mmHg 93%
    01:00 +15°C° 0 mm 2 mps 741 mmHg 95%
    02:00 +15°C° 0 mm 1 mps 741 mmHg 96%
    03:00 +15°C° 0.5 mm 2 mps 741 mmHg 96%
    04:00 +15°C° 0.5 mm 2 mps 741 mmHg 96%
    05:00 +14°C° 0.5 mm 3 mps 741 mmHg 97%
    06:00 +16°C° 0.1 mm 3 mps 742 mmHg 95%
    07:00 +16°C° 0.1 mm 3 mps 742 mmHg 93%
    08:00 +16°C° 0 mm 3 mps 742 mmHg 91%
    09:00 +16°C° 0.2 mm 3 mps 742 mmHg 90%
    10:00 +15°C° 0.2 mm 4 mps 742 mmHg 90%
    11:00 +17°C° 0.2 mm 4 mps 742 mmHg 90%
    12:00 +17°C° 0 mm 4 mps 742 mmHg 87%
    13:00 +18°C° 0 mm 4 mps 742 mmHg 85%
    14:00 +19°C° 0 mm 4 mps 742 mmHg 82%
    15:00 +19°C° 0.1 mm 4 mps 742 mmHg 81%
    16:00 +19°C° 0.1 mm 4 mps 742 mmHg 81%
    17:00 +20°C° 0.1 mm 4 mps 742 mmHg 80%
    18:00 +19°C° 0.4 mm 4 mps 742 mmHg 85%
    19:00 +18°C° 0.4 mm 4 mps 742 mmHg 89%
    20:00 +17°C° 0.4 mm 4 mps 742 mmHg 94%
    21:00 +15°C° 0.1 mm 4 mps 742 mmHg 95%
    22:00 +14°C° 0.1 mm 4 mps 741 mmHg 96%
    23:00 +14°C° 0.1 mm 3 mps 741 mmHg 97%

    Tomorrow, 25 May, Saturday

    Time Temperature Precipitation Wind Pressure Humidity
    00:00 +14°C° 0.1 mm 3 mps 741 mmHg 97%
    01:00 +14°C° 0.1 mm 3 mps 741 mmHg 97%
    02:00 +14°C° 0.1 mm 3 mps 741 mmHg 97%
    03:00 +14°C° 1 mm 3 mps 741 mmHg 97%
    04:00 +14°C° 1 mm 3 mps 740 mmHg 97%
    05:00 +14°C° 1 mm 3 mps 740 mmHg 97%
    06:00 +16°C° 1.3 mm 3 mps 740 mmHg 96%
    07:00 +16°C° 1.3 mm 3 mps 740 mmHg 95%
    08:00 +17°C° 1.3 mm 2 mps 740 mmHg 94%
    09:00 +18°C° 0.2 mm 3 mps 740 mmHg 91%
    10:00 +19°C° 0.2 mm 3 mps 739 mmHg 87%
    11:00 +20°C° 0.2 mm 3 mps 739 mmHg 84%
    12:00 +20°C° 0.7 mm 4 mps 739 mmHg 83%
    13:00 +20°C° 0.7 mm 4 mps 739 mmHg 82%
    14:00 +21°C° 0.7 mm 4 mps 739 mmHg 80%
    15:00 +20°C° 0.2 mm 4 mps 739 mmHg 81%
    16:00 +20°C° 0.2 mm 4 mps 738 mmHg 82%
    17:00 +20°C° 0.2 mm 3 mps 738 mmHg 83%
    18:00 +19°C° 0.4 mm 3 mps 738 mmHg 86%
    19:00 +18°C° 0.4 mm 3 mps 738 mmHg 89%
    20:00 +17°C° 0.4 mm 2 mps 738 mmHg 91%
    21:00 +16°C° 0.1 mm 2 mps 738 mmHg 92%
    22:00 +15°C° 0.1 mm 2 mps 738 mmHg 93%
    23:00 +14°C° 0.1 mm 2 mps 738 mmHg 93%

    Day after tomorrow, 26 May, Sunday

    Time Temperature Precipitation Wind Pressure Humidity
    00:00 +14°C° 0 mm 2 mps 738 mmHg 94%
    01:00 +13°C° 0 mm 2 mps 739 mmHg 94%
    02:00 +12°C° 0 mm 2 mps 739 mmHg 95%
    03:00 +12°C° 0 mm 2 mps 739 mmHg 95%
    04:00 +12°C° 0 mm 2 mps 739 mmHg 95%
    05:00 +12°C° 0 mm 2 mps 739 mmHg 95%
    06:00 +13°C° 0 mm 2 mps 739 mmHg 91%
    07:00 +14°C° 0 mm 3 mps 740 mmHg 86%
    08:00 +16°C° 0 mm 3 mps 740 mmHg 81%
    09:00 +17°C° 0 mm 3 mps 740 mmHg 74%
    10:00 +18°C° 0 mm 3 mps 740 mmHg 68%
    11:00 +19°C° 0 mm 3 mps 740 mmHg 61%
    12:00 +19°C° 0 mm 3 mps 740 mmHg 61%
    13:00 +19°C° 0 mm 4 mps 740 mmHg 61%
    14:00 +19°C° 0 mm 4 mps 740 mmHg 61%
    15:00 +19°C° 0 mm 4 mps 740 mmHg 63%
    16:00 +19°C° 0 mm 4 mps 739 mmHg 65%
    17:00 +18°C° 0 mm 4 mps 739 mmHg 66%
    18:00 +17°C° 0 mm 4 mps 739 mmHg 71%
    19:00 +16°C° 0 mm 3 mps 739 mmHg 76%
    20:00 +13°C° 0 mm 3 mps 739 mmHg 81%
    21:00 +13°C° 0 mm 3 mps 739 mmHg 83%
    22:00 +12°C° 0 mm 3 mps 740 mmHg 84%
    23:00 +12°C° 0 mm 3 mps 740 mmHg 86%

    27 May, Monday

    Time Temperature Precipitation Wind Pressure Humidity
    00:00 +11°C° 0 mm 3 mps 740 mmHg 88%
    01:00 +11°C° 0 mm 3 mps 740 mmHg 90%
    02:00 +11°C° 0 mm 3 mps 740 mmHg 93%
    03:00 +11°C° 0 mm 3 mps 740 mmHg 93%
    04:00 +11°C° 0 mm 3 mps 741 mmHg 93%
    05:00 +11°C° 0 mm 3 mps 741 mmHg 92%
    06:00 +12°C° 0 mm 4 mps 742 mmHg 85%
    07:00 +13°C° 0 mm 4 mps 742 mmHg 77%
    08:00 +14°C° 0 mm 5 mps 742 mmHg 70%
    09:00 +15°C° 0 mm 5 mps 743 mmHg 68%
    10:00 +16°C° 0 mm 5 mps 743 mmHg 66%
    11:00 +17°C° 0 mm 6 mps 743 mmHg 64%
    12:00 +17°C° 0.1 mm 5 mps 743 mmHg 66%
    13:00 +17°C° 0.1 mm 5 mps 743 mmHg 67%
    14:00 +17°C° 0.1 mm 5 mps 743 mmHg 69%
    15:00 +19°C° 0 mm 4 mps 743 mmHg 69%
    16:00 +19°C° 0 mm 4 mps 743 mmHg 69%
    17:00 +19°C° 0 mm 4 mps 743 mmHg 69%
    18:00 +18°C° 0 mm 4 mps 743 mmHg 75%
    19:00 +17°C° 0 mm 3 mps 743 mmHg 81%
    20:00 +16°C° 0 mm 3 mps 743 mmHg 87%
    21:00 +14°C° 0 mm 3 mps 743 mmHg 87%
    22:00 +14°C° 0 mm 3 mps 743 mmHg 87%
    23:00 +13°C° 0 mm 3 mps 743 mmHg 87%

    28 May, Tuesday

    Time Temperature Precipitation Wind Pressure Humidity
    00:00 +14°C° 0 mm 3 mps 744 mmHg 87%
    01:00 +14°C° 0 mm 3 mps 744 mmHg 86%
    02:00 +14°C° 0 mm 3 mps 744 mmHg 86%
    03:00 +14°C° 0 mm 3 mps 744 mmHg 88%
    04:00 +14°C° 0 mm 3 mps 744 mmHg 90%
    05:00 +14°C° 0 mm 3 mps 744 mmHg 92%
    06:00 +16°C° 0 mm 3 mps 744 mmHg 89%
    07:00 +18°C° 0 mm 3 mps 744 mmHg 86%
    08:00 +19°C° 0 mm 3 mps 744 mmHg 84%
    09:00 +21°C° 0.1 mm 3 mps 744 mmHg 78%
    10:00 +22°C° 0.1 mm 3 mps 744 mmHg 73%
    11:00 +25°C° 0.1 mm 3 mps 744 mmHg 68%
    12:00 +25°C° 0.4 mm 4 mps 744 mmHg 68%
    13:00 +25°C° 0.4 mm 4 mps 744 mmHg 69%
    14:00 +25°C° 0.4 mm 5 mps 744 mmHg 69%
    15:00 +23°C° 0.6 mm 4 mps 744 mmHg 75%
    16:00 +22°C° 0.6 mm 3 mps 744 mmHg 82%
    17:00 +21°C° 0.6 mm 3 mps 744 mmHg 88%
    18:00 +21°C° 0 mm 3 mps 744 mmHg 89%
    19:00 +20°C° 0 mm 3 mps 744 mmHg 89%
    20:00 +20°C° 0 mm 4 mps 744 mmHg 90%
    21:00 +19°C° 0 mm 4 mps 744 mmHg 90%
    22:00 +19°C° 0 mm 4 mps 744 mmHg 90%
    23:00 +19°C° 0 mm 4 mps 744 mmHg 90%

    29 May, Wednesday

    Time Temperature Precipitation Wind Pressure Humidity
    00:00 +19°C° 0 mm 4 mps 744 mmHg 91%
    01:00 +19°C° 0 mm 4 mps 743 mmHg 91%
    02:00 +19°C° 0 mm 4 mps 743 mmHg 91%
    03:00 +18°C° 0 mm 4 mps 743 mmHg 91%
    04:00 +17°C° 0 mm 5 mps 743 mmHg 90%
    05:00 +17°C° 0 mm 5 mps 743 mmHg 89%
    06:00 +19°C° 0 mm 5 mps 743 mmHg 84%
    07:00 +21°C° 0 mm 6 mps 743 mmHg 78%
    08:00 +22°C° 0 mm 7 mps 743 mmHg 73%
    09:00 +23°C° 0 mm 7 mps 743 mmHg 71%
    10:00 +24°C° 0 mm 7 mps 743 mmHg 69%
    11:00 +26°C° 0 mm 7 mps 743 mmHg 66%
    12:00 +26°C° 0 mm 7 mps 742 mmHg 67%
    13:00 +26°C° 0 mm 7 mps 742 mmHg 67%
    14:00 +27°C° 0 mm 7 mps 742 mmHg 67%
    15:00 +26°C° 0.9 mm 7 mps 742 mmHg 72%
    16:00 +24°C° 0.9 mm 6 mps 742 mmHg 76%
    17:00 +24°C° 0.9 mm 6 mps 742 mmHg 81%
    18:00 +22°C° 0.8 mm 5 mps 742 mmHg 84%
    19:00 +21°C° 0.8 mm 4 mps 742 mmHg 88%
    20:00 +20°C° 0.8 mm 4 mps 742 mmHg 91%
    21:00 +19°C° 0.2 mm 3 mps 742 mmHg 92%
    22:00 +19°C° 0.2 mm 3 mps 742 mmHg 94%
    23:00 +18°C° 0.2 mm 3 mps 742 mmHg 95%
    Show more